• In Uzbekistan
  • List of Countries
  • For 7 days
  • Water Temperature
  • Satellite Maps
  • Weather Map
  • Weather Widgets
  • user-avatar
    Login

    Hourly Weather Viedma

    Today, 25 September, Tuesday

    Time Temperature Precipitation Wind Pressure Humidity
    00:00 +8°C° 0 mm 6 mps 760 mmHg 63%
    01:00 +8°C° 0 mm 6 mps 760 mmHg 62%
    02:00 +8°C° 0 mm 7 mps 759 mmHg 61%
    03:00 +9°C° 0 mm 7 mps 759 mmHg 62%
    04:00 +9°C° 0 mm 7 mps 759 mmHg 63%
    05:00 +9°C° 0 mm 7 mps 758 mmHg 65%
    06:00 +10°C° 0 mm 7 mps 758 mmHg 61%
    07:00 +11°C° 0 mm 7 mps 758 mmHg 57%
    08:00 +11°C° 0 mm 7 mps 758 mmHg 53%
    09:00 +12°C° 0 mm 7 mps 758 mmHg 48%
    10:00 +15°C° 0 mm 7 mps 758 mmHg 42%
    11:00 +16°C° 0 mm 7 mps 757 mmHg 37%
    12:00 +17°C° 0 mm 7 mps 757 mmHg 35%
    13:00 +18°C° 0 mm 7 mps 757 mmHg 32%
    14:00 +20°C° 0 mm 7 mps 756 mmHg 30%
    15:00 +19°C° 0 mm 6 mps 756 mmHg 31%
    16:00 +19°C° 0 mm 6 mps 756 mmHg 32%
    17:00 +17°C° 0 mm 5 mps 756 mmHg 33%
    18:00 +15°C° 0 mm 4 mps 756 mmHg 37%
    19:00 +13°C° 0 mm 3 mps 757 mmHg 41%
    20:00 +11°C° 0 mm 3 mps 757 mmHg 45%
    21:00 +12°C° 0 mm 2 mps 758 mmHg 45%
    22:00 +10°C° 0 mm 2 mps 758 mmHg 44%
    23:00 +10°C° 0 mm 2 mps 759 mmHg 44%

    Tomorrow, 26 September, Wednesday

    Time Temperature Precipitation Wind Pressure Humidity
    00:00 +10°C° 0 mm 2 mps 759 mmHg 44%
    01:00 +10°C° 0 mm 3 mps 759 mmHg 45%
    02:00 +10°C° 0 mm 3 mps 759 mmHg 45%
    03:00 +10°C° 0 mm 4 mps 760 mmHg 53%
    04:00 +8°C° 0 mm 5 mps 761 mmHg 60%
    05:00 +8°C° 0 mm 6 mps 761 mmHg 67%
    06:00 +8°C° 0 mm 7 mps 762 mmHg 67%
    07:00 +9°C° 0 mm 7 mps 762 mmHg 67%
    08:00 +9°C° 0 mm 7 mps 763 mmHg 66%
    09:00 +9°C° 0 mm 7 mps 764 mmHg 64%
    10:00 +10°C° 0 mm 7 mps 764 mmHg 61%
    11:00 +10°C° 0 mm 7 mps 764 mmHg 59%
    12:00 +10°C° 0 mm 7 mps 764 mmHg 58%
    13:00 +10°C° 0 mm 7 mps 764 mmHg 57%
    14:00 +10°C° 0 mm 7 mps 764 mmHg 56%
    15:00 +9°C° 0 mm 7 mps 764 mmHg 58%
    16:00 +9°C° 0 mm 6 mps 764 mmHg 60%
    17:00 +8°C° 0 mm 6 mps 764 mmHg 61%
    18:00 +7°C° 0 mm 5 mps 765 mmHg 64%
    19:00 +7°C° 0 mm 5 mps 765 mmHg 67%
    20:00 +6°C° 0 mm 4 mps 766 mmHg 70%
    21:00 +6°C° 0 mm 4 mps 766 mmHg 70%
    22:00 +6°C° 0 mm 4 mps 766 mmHg 71%
    23:00 +6°C° 0 mm 4 mps 766 mmHg 71%

    Day after tomorrow, 27 September, Thursday

    Time Temperature Precipitation Wind Pressure Humidity
    00:00 +6°C° 0 mm 4 mps 765 mmHg 71%
    01:00 +6°C° 0 mm 4 mps 765 mmHg 70%
    02:00 +6°C° 0 mm 4 mps 765 mmHg 70%
    03:00 +6°C° 0 mm 4 mps 765 mmHg 70%
    04:00 +6°C° 0 mm 4 mps 765 mmHg 71%
    05:00 +5°C° 0 mm 4 mps 765 mmHg 72%
    06:00 +6°C° 0 mm 4 mps 765 mmHg 70%
    07:00 +7°C° 0 mm 5 mps 765 mmHg 68%
    08:00 +7°C° 0 mm 6 mps 765 mmHg 67%
    09:00 +8°C° 0 mm 6 mps 765 mmHg 66%
    10:00 +8°C° 0 mm 6 mps 764 mmHg 65%
    11:00 +9°C° 0 mm 7 mps 764 mmHg 64%
    12:00 +9°C° 0.1 mm 6 mps 764 mmHg 66%
    13:00 +9°C° 0.1 mm 6 mps 763 mmHg 68%
    14:00 +9°C° 0.1 mm 6 mps 763 mmHg 69%
    15:00 +8°C° 0.1 mm 6 mps 762 mmHg 71%
    16:00 +8°C° 0.1 mm 7 mps 762 mmHg 73%
    17:00 +8°C° 0.1 mm 7 mps 761 mmHg 74%
    18:00 +8°C° 0.1 mm 7 mps 761 mmHg 77%
    19:00 +8°C° 0.1 mm 7 mps 761 mmHg 79%
    20:00 +8°C° 0.1 mm 6 mps 761 mmHg 82%
    21:00 +8°C° 0.1 mm 6 mps 761 mmHg 83%
    22:00 +8°C° 0.1 mm 6 mps 760 mmHg 85%
    23:00 +8°C° 0.1 mm 6 mps 760 mmHg 87%

    28 September, Friday

    Time Temperature Precipitation Wind Pressure Humidity
    00:00 +8°C° 0 mm 6 mps 759 mmHg 87%
    01:00 +8°C° 0 mm 6 mps 758 mmHg 87%
    02:00 +9°C° 0 mm 6 mps 758 mmHg 88%
    03:00 +9°C° 0.5 mm 6 mps 757 mmHg 89%
    04:00 +9°C° 0.5 mm 6 mps 757 mmHg 90%
    05:00 +9°C° 0.5 mm 6 mps 756 mmHg 91%
    06:00 +9°C° 0.8 mm 6 mps 756 mmHg 91%
    07:00 +9°C° 0.8 mm 6 mps 755 mmHg 91%
    08:00 +9°C° 0.8 mm 7 mps 755 mmHg 91%
    09:00 +10°C° 0.2 mm 7 mps 754 mmHg 88%
    10:00 +11°C° 0.2 mm 7 mps 754 mmHg 86%
    11:00 +12°C° 0.2 mm 8 mps 753 mmHg 84%
    12:00 +15°C° 0 mm 7 mps 752 mmHg 81%
    13:00 +16°C° 0 mm 7 mps 752 mmHg 78%
    14:00 +17°C° 0 mm 7 mps 751 mmHg 76%
    15:00 +19°C° 0.1 mm 6 mps 750 mmHg 75%
    16:00 +19°C° 0.1 mm 5 mps 750 mmHg 74%
    17:00 +20°C° 0.1 mm 5 mps 750 mmHg 73%
    18:00 +19°C° 0 mm 5 mps 749 mmHg 78%
    19:00 +17°C° 0 mm 6 mps 749 mmHg 82%
    20:00 +16°C° 0 mm 7 mps 749 mmHg 87%
    21:00 +16°C° 0.1 mm 7 mps 749 mmHg 89%
    22:00 +16°C° 0.1 mm 7 mps 748 mmHg 90%
    23:00 +16°C° 0.1 mm 7 mps 748 mmHg 92%

    29 September, Saturday

    Time Temperature Precipitation Wind Pressure Humidity
    00:00 +16°C° 0 mm 8 mps 747 mmHg 92%
    01:00 +16°C° 0 mm 9 mps 746 mmHg 92%
    02:00 +17°C° 0 mm 9 mps 745 mmHg 92%
    03:00 +17°C° 0.4 mm 9 mps 744 mmHg 92%
    04:00 +17°C° 0.4 mm 8 mps 744 mmHg 91%
    05:00 +17°C° 0.4 mm 7 mps 743 mmHg 91%
    06:00 +17°C° 0.8 mm 8 mps 743 mmHg 90%
    07:00 +18°C° 0.8 mm 8 mps 743 mmHg 89%
    08:00 +18°C° 0.8 mm 8 mps 743 mmHg 88%
    09:00 +19°C° 0.4 mm 9 mps 742 mmHg 82%
    10:00 +21°C° 0.4 mm 10 mps 741 mmHg 76%
    11:00 +22°C° 0.4 mm 11 mps 741 mmHg 70%
    12:00 +23°C° 0.1 mm 12 mps 741 mmHg 54%
    13:00 +24°C° 0.1 mm 14 mps 740 mmHg 39%
    14:00 +26°C° 0.1 mm 15 mps 740 mmHg 24%
    15:00 +24°C° 0 mm 14 mps 741 mmHg 26%
    16:00 +23°C° 0 mm 13 mps 741 mmHg 28%
    17:00 +22°C° 0 mm 13 mps 742 mmHg 29%
    18:00 +19°C° 0 mm 12 mps 743 mmHg 29%
    19:00 +18°C° 0 mm 11 mps 744 mmHg 29%
    20:00 +16°C° 0 mm 10 mps 745 mmHg 29%
    21:00 +13°C° 0 mm 9 mps 746 mmHg 44%
    22:00 +12°C° 0 mm 8 mps 747 mmHg 59%
    23:00 +10°C° 0 mm 7 mps 748 mmHg 75%

    30 September, Sunday

    Time Temperature Precipitation Wind Pressure Humidity
    00:00 +10°C° 0 mm 5 mps 748 mmHg 75%
    01:00 +10°C° 0 mm 4 mps 749 mmHg 75%
    02:00 +10°C° 0 mm 3 mps 749 mmHg 74%
    03:00 +10°C° 0 mm 3 mps 750 mmHg 73%
    04:00 +8°C° 0 mm 4 mps 750 mmHg 72%
    05:00 +8°C° 0 mm 5 mps 751 mmHg 71%
    06:00 +8°C° 0 mm 6 mps 751 mmHg 60%
    07:00 +9°C° 0 mm 7 mps 752 mmHg 50%
    08:00 +8°C° 0 mm 9 mps 753 mmHg 40%
    09:00 +10°C° 0 mm 9 mps 753 mmHg 41%
    10:00 +10°C° 0 mm 9 mps 753 mmHg 41%
    11:00 +11°C° 0 mm 10 mps 754 mmHg 42%
    12:00 +10°C° 0.1 mm 9 mps 754 mmHg 42%
    13:00 +10°C° 0.1 mm 9 mps 755 mmHg 42%
    14:00 +10°C° 0.1 mm 8 mps 755 mmHg 42%
    15:00 +10°C° 0 mm 8 mps 755 mmHg 40%
    16:00 +9°C° 0 mm 7 mps 756 mmHg 39%
    17:00 +9°C° 0 mm 7 mps 756 mmHg 38%
    18:00 +8°C° 0 mm 6 mps 757 mmHg 40%
    19:00 +7°C° 0 mm 6 mps 758 mmHg 42%
    20:00 +7°C° 0 mm 5 mps 759 mmHg 44%
    21:00 +6°C° 0 mm 5 mps 759 mmHg 45%
    22:00 +6°C° 0 mm 5 mps 759 mmHg 46%
    23:00 +6°C° 0 mm 5 mps 760 mmHg 47%
    Show more